When you browse on this site, cookies collect data to enhance your experience and personalize the content and advertising you see.
Visit our Privacy Policy to learn more. By continuing to use the site, you agree to this use of cookies and data.
  • In Schweiz
  • Länderverzeichnis
  • Für 7 Tage
  • Wassertemperatur
  • Wetterkarte
  • Widgets
  • user-avatar
    Anmelden

    Stündliche Wetter Gifhorn

    Heute, 28 Mai, Donnerstag

    Zeit Temperatur Niederschläge Wind Luftdruck Luftfeuchtigkeit
    00:00 +10°C° 0 mm 3 m/S 769 mmHg 93%
    01:00 +9°C° 0 mm 3 m/S 769 mmHg 97%
    02:00 +8°C° 0 mm 3 m/S 769 mmHg 97%
    03:00 +7°C° 0 mm 2 m/S 769 mmHg 96%
    04:00 +7°C° 0 mm 2 m/S 769 mmHg 96%
    05:00 +8°C° 0 mm 3 m/S 769 mmHg 92%
    06:00 +9°C° 0 mm 3 m/S 769 mmHg 88%
    07:00 +10°C° 0 mm 3 m/S 769 mmHg 84%
    08:00 +11°C° 0 mm 3 m/S 769 mmHg 75%
    09:00 +13°C° 0 mm 3 m/S 769 mmHg 67%
    10:00 +16°C° 0 mm 3 m/S 769 mmHg 58%
    11:00 +17°C° 0 mm 3 m/S 769 mmHg 55%
    12:00 +18°C° 0 mm 3 m/S 768 mmHg 52%
    13:00 +19°C° 0 mm 3 m/S 768 mmHg 49%
    14:00 +19°C° 0 mm 4 m/S 768 mmHg 49%
    15:00 +19°C° 0 mm 4 m/S 768 mmHg 49%
    16:00 +19°C° 0 mm 4 m/S 767 mmHg 50%
    17:00 +18°C° 0 mm 3 m/S 767 mmHg 56%
    18:00 +17°C° 0 mm 3 m/S 767 mmHg 62%
    19:00 +16°C° 0 mm 3 m/S 767 mmHg 69%
    20:00 +13°C° 0 mm 3 m/S 768 mmHg 74%
    21:00 +12°C° 0 mm 2 m/S 768 mmHg 79%
    22:00 +9°C° 0 mm 2 m/S 768 mmHg 85%
    23:00 +9°C° 0 mm 2 m/S 768 mmHg 87%

    Morgen, 29 Mai, Freitag

    Zeit Temperatur Niederschläge Wind Luftdruck Luftfeuchtigkeit
    00:00 +8°C° 0 mm 2 m/S 768 mmHg 90%
    01:00 +7°C° 0 mm 2 m/S 768 mmHg 92%
    02:00 +8°C° 0 mm 1 m/S 768 mmHg 93%
    03:00 +8°C° 0 mm 1 m/S 768 mmHg 94%
    04:00 +7°C° 0 mm 1 m/S 768 mmHg 95%
    05:00 +9°C° 0 mm 1 m/S 768 mmHg 89%
    06:00 +10°C° 0 mm 1 m/S 768 mmHg 82%
    07:00 +12°C° 0 mm 1 m/S 768 mmHg 76%
    08:00 +13°C° 0 mm 2 m/S 768 mmHg 68%
    09:00 +15°C° 0 mm 2 m/S 768 mmHg 59%
    10:00 +17°C° 0 mm 2 m/S 768 mmHg 51%
    11:00 +18°C° 0 mm 2 m/S 767 mmHg 50%
    12:00 +18°C° 0 mm 2 m/S 767 mmHg 48%
    13:00 +19°C° 0 mm 2 m/S 766 mmHg 46%
    14:00 +19°C° 0 mm 2 m/S 766 mmHg 48%
    15:00 +19°C° 0 mm 2 m/S 766 mmHg 49%
    16:00 +19°C° 0 mm 3 m/S 765 mmHg 50%
    17:00 +18°C° 0 mm 2 m/S 765 mmHg 56%
    18:00 +17°C° 0 mm 2 m/S 765 mmHg 62%
    19:00 +17°C° 0 mm 2 m/S 765 mmHg 68%
    20:00 +15°C° 0 mm 2 m/S 765 mmHg 72%
    21:00 +13°C° 0 mm 2 m/S 765 mmHg 77%
    22:00 +12°C° 0 mm 2 m/S 765 mmHg 81%
    23:00 +10°C° 0 mm 2 m/S 765 mmHg 84%

    übermorgen, 30 Mai, Samstag

    Zeit Temperatur Niederschläge Wind Luftdruck Luftfeuchtigkeit
    00:00 +11°C° 0 mm 1 m/S 765 mmHg 88%
    01:00 +10°C° 0 mm 1 m/S 765 mmHg 91%
    02:00 +10°C° 0 mm 1 m/S 765 mmHg 91%
    03:00 +9°C° 0 mm 1 m/S 765 mmHg 91%
    04:00 +9°C° 0 mm 1 m/S 765 mmHg 91%
    05:00 +10°C° 0 mm 1 m/S 765 mmHg 85%
    06:00 +11°C° 0 mm 1 m/S 765 mmHg 79%
    07:00 +13°C° 0 mm 2 m/S 765 mmHg 73%
    08:00 +14°C° 0 mm 2 m/S 765 mmHg 67%
    09:00 +16°C° 0 mm 2 m/S 765 mmHg 61%
    10:00 +17°C° 0 mm 2 m/S 765 mmHg 55%
    11:00 +17°C° 0.1 mm 2 m/S 764 mmHg 57%
    12:00 +17°C° 0.1 mm 2 m/S 764 mmHg 59%
    13:00 +17°C° 0.1 mm 2 m/S 764 mmHg 61%
    14:00 +17°C° 0.1 mm 3 m/S 764 mmHg 61%
    15:00 +18°C° 0.1 mm 3 m/S 763 mmHg 62%
    16:00 +18°C° 0.1 mm 4 m/S 763 mmHg 62%
    17:00 +17°C° 0.2 mm 4 m/S 763 mmHg 68%
    18:00 +16°C° 0.2 mm 3 m/S 763 mmHg 74%
    19:00 +14°C° 0.2 mm 3 m/S 763 mmHg 80%
    20:00 +12°C° 0 mm 3 m/S 763 mmHg 82%
    21:00 +10°C° 0 mm 3 m/S 763 mmHg 84%
    22:00 +9°C° 0 mm 3 m/S 763 mmHg 86%
    23:00 +8°C° 0 mm 2 m/S 763 mmHg 88%

    31 Mai, Sonntag

    Zeit Temperatur Niederschläge Wind Luftdruck Luftfeuchtigkeit
    00:00 +7°C° 0 mm 2 m/S 763 mmHg 89%
    01:00 +7°C° 0 mm 2 m/S 763 mmHg 91%
    02:00 +7°C° 0 mm 2 m/S 763 mmHg 92%
    03:00 +7°C° 0 mm 2 m/S 763 mmHg 93%
    04:00 +6°C° 0 mm 2 m/S 763 mmHg 94%
    05:00 +8°C° 0 mm 2 m/S 763 mmHg 89%
    06:00 +10°C° 0 mm 3 m/S 763 mmHg 84%
    07:00 +11°C° 0 mm 3 m/S 763 mmHg 79%
    08:00 +13°C° 0 mm 3 m/S 763 mmHg 74%
    09:00 +14°C° 0 mm 3 m/S 763 mmHg 68%
    10:00 +17°C° 0 mm 4 m/S 763 mmHg 62%
    11:00 +18°C° 0 mm 4 m/S 762 mmHg 60%
    12:00 +19°C° 0 mm 4 m/S 762 mmHg 58%
    13:00 +20°C° 0 mm 4 m/S 762 mmHg 55%
    14:00 +20°C° 0 mm 4 m/S 762 mmHg 56%
    15:00 +21°C° 0 mm 4 m/S 762 mmHg 57%
    16:00 +21°C° 0 mm 5 m/S 761 mmHg 58%
    17:00 +20°C° 0 mm 4 m/S 761 mmHg 62%
    18:00 +19°C° 0 mm 4 m/S 762 mmHg 66%
    19:00 +18°C° 0 mm 3 m/S 762 mmHg 71%
    20:00 +16°C° 0 mm 3 m/S 762 mmHg 75%
    21:00 +13°C° 0 mm 3 m/S 762 mmHg 79%
    22:00 +11°C° 0 mm 3 m/S 762 mmHg 83%
    23:00 +11°C° 0 mm 3 m/S 762 mmHg 86%

    1 Juni, Montag

    Zeit Temperatur Niederschläge Wind Luftdruck Luftfeuchtigkeit
    00:00 +10°C° 0 mm 3 m/S 762 mmHg 89%
    01:00 +9°C° 0 mm 2 m/S 762 mmHg 92%
    02:00 +9°C° 0 mm 2 m/S 762 mmHg 94%
    03:00 +8°C° 0 mm 2 m/S 762 mmHg 95%
    04:00 +8°C° 0 mm 2 m/S 762 mmHg 97%
    05:00 +9°C° 0 mm 2 m/S 762 mmHg 92%
    06:00 +12°C° 0 mm 2 m/S 762 mmHg 87%
    07:00 +14°C° 0 mm 2 m/S 762 mmHg 83%
    08:00 +16°C° 0 mm 2 m/S 762 mmHg 78%
    09:00 +18°C° 0 mm 2 m/S 762 mmHg 73%
    10:00 +19°C° 0 mm 3 m/S 762 mmHg 69%
    11:00 +20°C° 0 mm 3 m/S 762 mmHg 67%
    12:00 +21°C° 0 mm 4 m/S 762 mmHg 66%
    13:00 +21°C° 0 mm 4 m/S 761 mmHg 64%
    14:00 +22°C° 0 mm 4 m/S 761 mmHg 62%
    15:00 +22°C° 0 mm 4 m/S 761 mmHg 59%
    16:00 +23°C° 0 mm 4 m/S 761 mmHg 57%
    17:00 +22°C° 0 mm 3 m/S 761 mmHg 62%
    18:00 +21°C° 0 mm 3 m/S 760 mmHg 66%
    19:00 +20°C° 0 mm 2 m/S 760 mmHg 71%
    20:00 +19°C° 0 mm 3 m/S 760 mmHg 75%
    21:00 +17°C° 0 mm 3 m/S 761 mmHg 80%
    22:00 +16°C° 0 mm 3 m/S 761 mmHg 84%
    23:00 +14°C° 0 mm 3 m/S 761 mmHg 87%

    2 Juni, Dienstag

    Zeit Temperatur Niederschläge Wind Luftdruck Luftfeuchtigkeit
    00:00 +13°C° 0 mm 3 m/S 761 mmHg 89%
    01:00 +12°C° 0 mm 3 m/S 761 mmHg 92%
    02:00 +13°C° 0 mm 2 m/S 760 mmHg 92%
    03:00 +13°C° 0 mm 2 m/S 760 mmHg 92%
    04:00 +12°C° 0 mm 2 m/S 760 mmHg 92%
    05:00 +14°C° 0 mm 2 m/S 760 mmHg 87%
    06:00 +15°C° 0 mm 2 m/S 760 mmHg 83%
    07:00 +16°C° 0 mm 3 m/S 760 mmHg 78%
    08:00 +18°C° 0 mm 3 m/S 760 mmHg 72%
    09:00 +20°C° 0 mm 4 m/S 760 mmHg 66%
    10:00 +21°C° 0 mm 4 m/S 760 mmHg 60%
    11:00 +22°C° 0 mm 5 m/S 760 mmHg 59%
    12:00 +22°C° 0 mm 5 m/S 760 mmHg 57%
    13:00 +23°C° 0 mm 5 m/S 760 mmHg 56%
    14:00 +23°C° 0 mm 5 m/S 759 mmHg 56%
    15:00 +23°C° 0 mm 5 m/S 759 mmHg 56%
    16:00 +23°C° 0 mm 5 m/S 759 mmHg 56%
    17:00 +22°C° 0 mm 4 m/S 758 mmHg 61%
    18:00 +22°C° 0 mm 3 m/S 758 mmHg 66%
    19:00 +21°C° 0 mm 2 m/S 758 mmHg 71%
    20:00 +19°C° 0 mm 2 m/S 758 mmHg 73%
    21:00 +17°C° 0 mm 2 m/S 758 mmHg 76%
    22:00 +16°C° 0 mm 2 m/S 759 mmHg 79%
    23:00 +15°C° 0 mm 2 m/S 759 mmHg 81%
    Mehr zeigen